TimeEDT,TemperatureF,Dew PointF,Humidity,Sea Level PressureIn,VisibilityMPH,Wind Direction,Wind SpeedMPH,Gust SpeedMPH,PrecipitationIn,Events,Conditions,WindDirDegrees,DateUTC
12:54 AM,53.1,41.0,64,30.44,10.0,NE,3.5,-,N/A,,Clear,40,2013-05-02 04:54:00
1:54 AM,50.0,41.0,71,30.43,10.0,NNE,3.5,-,N/A,,Clear,20,2013-05-02 05:54:00
2:54 AM,48.9,41.0,74,30.43,10.0,Calm,Calm,-,N/A,,Clear,0,2013-05-02 06:54:00
3:54 AM,46.0,41.0,83,30.43,10.0,Calm,Calm,-,N/A,,Clear,0,2013-05-02 07:54:00
4:54 AM,45.0,42.1,90,30.43,7.0,Calm,Calm,-,N/A,,Clear,0,2013-05-02 08:54:00
5:54 AM,43.0,39.9,89,30.44,10.0,Calm,Calm,-,N/A,,Clear,0,2013-05-02 09:54:00
6:54 AM,44.1,41.0,89,30.46,10.0,Calm,Calm,-,N/A,,Clear,0,2013-05-02 10:54:00
7:54 AM,48.9,44.1,83,30.47,10.0,Calm,Calm,-,N/A,,Clear,0,2013-05-02 11:54:00
8:54 AM,53.1,44.1,71,30.47,10.0,Calm,Calm,-,N/A,,Clear,0,2013-05-02 12:54:00
9:54 AM,59.0,45.0,60,30.46,10.0,Calm,Calm,-,N/A,,Clear,0,2013-05-02 13:54:00
10:54 AM,63.0,44.1,50,30.47,10.0,Calm,Calm,-,N/A,,Clear,0,2013-05-02 14:54:00
11:54 AM,64.9,41.0,42,30.45,10.0,Variable,3.5,-,N/A,,Clear,0,2013-05-02 15:54:00
12:54 PM,66.9,41.0,39,30.43,10.0,Calm,Calm,-,N/A,,Clear,0,2013-05-02 16:54:00
1:54 PM,69.1,39.9,35,30.42,10.0,Variable,3.5,-,N/A,,Clear,0,2013-05-02 17:54:00
2:54 PM,72.0,42.1,34,30.40,10.0,SE,9.2,-,N/A,,Clear,140,2013-05-02 18:54:00
3:54 PM,72.0,42.1,34,30.38,10.0,ESE,10.4,16.1,N/A,,Clear,120,2013-05-02 19:54:00
4:54 PM,72.0,41.0,33,30.37,10.0,Variable,6.9,-,N/A,,Clear,0,2013-05-02 20:54:00
5:54 PM,71.1,39.9,32,30.35,10.0,East,6.9,17.3,N/A,,Clear,100,2013-05-02 21:54:00
6:54 PM,71.1,39.9,32,30.34,10.0,Variable,4.6,-,N/A,,Clear,0,2013-05-02 22:54:00
7:54 PM,68.0,39.0,35,30.34,10.0,Calm,Calm,-,N/A,,Clear,0,2013-05-02 23:54:00
8:54 PM,66.0,39.0,37,30.33,10.0,Calm,Calm,-,N/A,,Clear,0,2013-05-03 00:54:00
9:54 PM,62.1,41.0,46,30.33,10.0,Calm,Calm,-,N/A,,Clear,0,2013-05-03 01:54:00
10:54 PM,57.9,45.0,62,30.32,10.0,Calm,Calm,-,N/A,,Clear,0,2013-05-03 02:54:00
11:54 PM,55.0,44.1,67,30.33,10.0,Calm,Calm,-,N/A,,Clear,0,2013-05-03 03:54:00